VOLGA DEB, 44621

Orbit data source: Space-Track

VOLGA DEB, 44621 is space debris in SSO originally from a launch on Wed, 10 Jul 2019 UTC launched from the Plesetsk Missile And Space Complex (PKMTR). Debris objects in space refer to the collection of defunct objects orbiting the Earth. Examples of debris include non-operational satellites, rocket bodies, and fragments generated from explosions, collisions, or faulty payload assembly.

Loading next visibility...
Identifier
44621, 2019-039F
Orbit
SSO
Last TLE update
17 hours ago
Origin
Manufacturer
TSKHM?
Mission
Spacecraft
Bus & Motor
NAPRAZHENIYE?, Unknown motor
Mass
~47 kg wet, ~47 kg dry
Launch date (UTC)
2019-07-10 (6 years ago)
Launch vehicle
Unknown
Launch site
Plesetsk Missile And Space Complex (PKMTR)
Object type
Payload
Rocket body
Debris
Shape & HBR
Unknown
Radar Cross Section
Small (<0.1 m²)

Expand to show TLE details & history

TLE from 17 hours ago
0 VOLGA DEB
1 44621U 19039F   25130.87112391  .00002641  00000-0  25312-3 0  9991
2 44621  97.6158 164.2576 0009732 138.0667 222.1300 14.93937753316324
Epoch: 2025-05-10T20:54Z
Definitive object data (Epoch: 2025-05-10T20:54:25.105Z)
Latitude
-0.00007°
Longitude
-18.25369°
Altitude
593.751 km
Speed
7.56 km/s
True Right ascension
10h 57m 01s
True Declination
0° 00' 00"
Sunlit
Object was in full shadow at TLE epoch
Visualization TLE readout
Latitude
56.28919°
Longitude
173.91457°
Altitude
588.47 km
Speed
7.575 km/s
Apparent Right ascension
06h 24m 52s
Apparent Declination
35° 13' 04"
Sunlit
Object is in daylight
Visualization observer readout
Local Sidereal Time
21:49:42
Azimuth
39.564° NE
Elevation
-1.29°
Doppler factor
1
Orbital elements
Apogee altitude
589.456 km
Perigee altitude
575.907 km
Semi-major axis
6,960.819 km
Eccentricity
0.0009732
Inclination
97.6158°
RAAN
164.2576°
Arg. of periapsis
138.0667°
True anomaly
222.05526°
Mean anomaly
222.13°
Eccentric anomaly
222.09262°
Mean motion
3.73725 °/min
BSTAR
0.00025312
Orbital period
96.33 mins
Loading maneuver chart data...
Loading SW <> Apogee altitude chart data...

VOLGA DEB Visibility forecast

Observer location: undefined°, undefined°

Span
Click to sort rows by Start time (UTC) header in descending order
Start Az.
Max El. time (UTC)
Max El. Az.
Max El.
End time (UTC)
End Az.
7 mins2025-05-11 15:08:49.873Z9.16° NNE2025-05-11 15:12:49.873Z250.487° W44.155°2025-05-11 15:15:49.873Z198.725° SSW
6 mins2025-05-12 01:58:49.873Z149.095° SSE2025-05-12 02:01:49.873Z48.842° ENE39.992°2025-05-12 02:04:49.873Z357.536° N
|